Date,TemperatureHighF,TemperatureAvgF,TemperatureLowF,DewpointHighF,DewpointAvgF,DewpointLowF,HumidityHigh,HumidityAvg,HumidityLow,PressureMaxIn,PressureMinIn,WindSpeedMaxMPH,WindSpeedAvgMPH,GustSpeedMaxMPH,PrecipitationSumIn
2013-4-1,63,53,46,53,49,45,98,87,67,30.19,30.02,8,2,18,0.00
2013-4-2,62,52,46,52,48,45,97,87,68,30.22,30.15,8,3,17,0.00
2013-4-3,61,51,40,54,48,39,99,91,73,30.19,29.93,5,1,9,0.00
2013-4-4,57,53,50,56,52,49,99,97,91,29.93,29.70,7,2,14,0.21
2013-4-5,54,51,49,52,50,48,99,96,85,29.96,29.82,4,1,9,0.42
2013-4-6,51,47,45,50,46,44,99,97,82,30.02,29.69,6,1,12,0.85
2013-4-7,49,45,40,48,44,39,99,95,87,29.98,29.57,12,6,28,0.55
2013-4-8,52,44,38,47,41,38,99,90,68,30.31,29.98,10,3,17,0.04
2013-4-9,55,46,38,49,43,37,98,90,76,30.37,30.25,5,1,8,0.01
2013-4-10,54,49,44,51,46,42,97,90,74,30.36,30.14,14,4,25,0.05
2013-4-11,54,46,38,45,42,37,98,86,64,30.37,30.19,6,3,11,0.01
2013-4-12,54,43,34,45,40,34,99,89,72,30.19,29.87,9,2,19,0.00
2013-4-13,47,42,37,41,38,35,98,86,64,30.12,29.96,10,4,22,0.10
2013-4-14,50,42,38,44,40,37,99,92,71,30.10,29.95,7,2,14,0.15
2013-4-15,50,42,37,44,39,36,98,89,68,30.19,29.97,6,3,16,0.27
2013-4-16,52,44,35,47,41,34,98,92,71,30.42,30.19,9,2,13,0.16
2013-4-17,58,46,35,46,40,35,99,82,45,30.50,30.42,9,3,20,0.01
2013-4-18,58,50,44,49,44,41,94,82,66,30.49,30.34,8,3,15,0.01
2013-4-19,52,49,48,51,48,47,99,96,91,30.34,30.18,9,4,19,0.20
2013-4-20,56,49,46,48,45,42,97,86,72,30.36,30.30,9,4,16,0.01
2013-4-21,54,48,43,47,44,41,95,87,75,30.33,30.26,8,3,14,0.00
2013-4-22,62,50,35,44,37,29,99,69,30,30.42,30.33,10,4,17,0.00
2013-4-23,68,50,34,43,37,33,97,66,31,30.38,30.16,9,4,14,0.00
2013-4-24,71,55,35,43,37,31,96,59,23,30.25,30.02,10,4,15,0.00
2013-4-25,75,56,40,47,43,38,94,65,31,30.16,30.04,9,4,18,0.00
2013-4-26,77,58,40,50,43,37,96,63,25,30.25,30.16,8,4,14,0.00
2013-4-27,67,53,41,47,41,36,88,66,35,30.28,30.24,10,6,22,0.00
2013-4-28,62,54,47,50,47,42,96,78,52,30.29,30.12,9,5,17,0.00
2013-4-29,55,49,39,50,42,35,96,78,50,30.26,30.11,8,5,18,0.04
2013-4-30,55,45,35,41,36,33,96,74,43,30.45,30.26,8,4,18,0.01